CW5456 Hansville WA US current weather conditions

sailwx.info

Last reported at 2014-May-31 21:31 UTC.
Time now 2014-Jul-25 13:47 UTC

Location: N 47°55' W 122°35'.
View on Google Maps.

See reports from other nearby stations

  
Tides and Currents Weather Stations Pressure Air Temp Water Temp Dewpoint Dewpoint Depression Visibility Wind Speed Wind Dir Waves Ship Positions
date/time (UTC)wind fromknots sea level pressurealtimeterstation pressurevisibilityair tempwater tempwave heightnotes
2014-Jul-25 12:35 144 2 gusting 2 13.3
2014-Jul-25 12:25 064 0 gusting 2 13.3
2014-Jul-25 12:10 063 13.3
2014-Jul-25 11:55 063 13.3
2014-Jul-25 11:50 063 13.3
2014-Jul-25 11:45 063 13.3
2014-Jul-25 11:25 063 13.3
2014-Jul-25 11:15 063 13.3
2014-Jul-25 11:00 063 13.3
2014-Jul-25 10:50 063 13.3
2014-Jul-25 10:40 063 13.3
2014-Jul-25 10:35 063 13.3
2014-Jul-25 10:20 063 1 gusting 2 13.3
2014-Jul-25 10:09 063 0 gusting 2 13.3
2014-Jul-25 10:00 061 13.3
2014-Jul-25 09:54 062 13.3
2014-Jul-25 09:49 062 0 gusting 2 13.3
2014-Jul-25 09:34 062 2 gusting 3 13.3
2014-Jul-25 09:29 142 2 gusting 2 13.3
2014-Jul-25 09:09 142 0 gusting 1 13.3
2014-Jul-25 08:54 142 13.9
2014-Jul-25 08:49 142 0 gusting 2 13.9
2014-Jul-25 08:44 142 0 gusting 2 13.9
2014-Jul-25 08:34 184 13.9
2014-Jul-25 07:54 184 13.9
2014-Jul-25 07:49 184 13.9
2014-Jul-25 07:29 184 13.9
2014-Jul-25 07:24 184 13.9
2014-Jul-25 07:19 184 13.9
2014-Jul-25 07:09 184 13.9
2014-Jul-25 06:59 184 13.9
2014-Jul-25 06:49 184 13.9
2014-Jul-25 06:39 184 1 gusting 1 13.9
2014-Jul-25 06:19 119 2 gusting 2 13.9
2014-Jul-25 06:04 120 0 gusting 2 13.9
2014-Jul-25 05:59 120 1 gusting 2 13.9
2014-Jul-25 05:39 120 13.9
2014-Jul-25 05:25 120 0 gusting 2 13.9
2014-Jul-25 05:15 120 0 gusting 2 13.9
2014-Jul-25 05:04 120 0 gusting 2 13.9
2014-Jul-25 05:00 120 2 gusting 2 13.9
2014-Jul-25 04:34 044 0 gusting 2 13.9
2014-Jul-25 04:24 044 0 gusting 1 13.9
2014-Jul-25 04:19 044 13.9
2014-Jul-25 04:14 044 13.9
2014-Jul-25 04:10 044 13.9
2014-Jul-25 03:40 044 14.4
2014-Jul-25 03:35 044 14.4
2014-Jul-25 03:25 044 14.4
2014-Jul-25 02:34 044 14.4
2014-Jul-25 02:30 044 14.4
2014-Jul-25 02:20 044 14.4
2014-Jul-25 02:15 044 14.4
2014-Jul-25 02:10 044 14.4
2014-Jul-25 02:05 044 14.4
2014-Jul-25 01:55 044 14.4
2014-Jul-25 01:45 028 2 gusting 5 14.4
2014-Jul-25 01:40 051 2 gusting 5 14.4
2014-Jul-25 01:35 048 2 gusting 6 14.4
2014-Jul-25 01:30 028 3 gusting 6 14.4
2014-Jul-25 01:00 064 2 gusting 6 14.4
2014-Jul-25 00:50 059 2 gusting 6 14.4
2014-Jul-25 00:35 048 2 gusting 5 14.4
2014-Jul-25 00:20 056 13.9
2014-Jul-25 00:00 015 0 gusting 3 13.9
2014-Jul-24 23:55 360 3 gusting 5 13.9
2014-Jul-24 23:50 005 2 gusting 5 13.9
2014-Jul-24 23:45 005 3 gusting 3 13.9
2014-Jul-24 23:40 350 1 gusting 3 14.4
2014-Jul-24 23:35 350 1 gusting 3 14.4
2014-Jul-24 23:25 336 3 gusting 5 14.4
2014-Jul-24 23:20 302 1 gusting 5 14.4
2014-Jul-24 23:00 005 14.4
2014-Jul-24 22:55 360 14.4
2014-Jul-24 22:45 005 5 gusting 6 14.4
2014-Jul-24 22:35 005 2 gusting 6 15.0
2014-Jul-24 22:30 009 2 gusting 6 15.0
2014-Jul-24 22:20 011 2 gusting 3 15.0
2014-Jul-24 22:15 011 1 gusting 3 15.0
2014-Jul-24 21:15 056 3 gusting 5 15.0
2014-Jul-24 21:00 033 5 gusting 8 15.0
2014-Jul-24 20:50 058 7 gusting 9 15.0
2014-Jul-24 20:45 063 7 gusting 7 15.0
2014-Jul-24 20:30 062 2 gusting 3 15.0
2014-Jul-24 20:15 061 1 gusting 1 15.0
2014-Jul-24 20:10 061 15.0
2014-Jul-24 19:55 068 15.0
2014-Jul-24 19:50 059 3 gusting 6 15.0
2014-Jul-24 19:40 057 15.0
2014-Jul-24 19:25 055 0 gusting 3 15.0
2014-Jul-24 19:14 061 3 gusting 3 14.4
2014-Jul-24 18:39 066 1 gusting 5 14.4
2014-Jul-24 18:29 067 2 gusting 3 14.4
2014-Jul-24 18:19 057 1 gusting 3 14.4
2014-Jul-24 18:14 069 2 gusting 3 14.4
2014-Jul-24 17:54 065 2 gusting 2 14.4
2014-Jul-24 17:44 065 14.4
2014-Jul-24 17:29 066 1 gusting 3 15.0
2014-Jul-24 17:24 066 2 gusting 3 15.0
2014-Jul-24 17:19 183 15.0
2014-Jul-24 17:09 187 15.0
2014-Jul-24 16:59 187 1 gusting 3 15.0
2014-Jul-24 16:54 186 1 gusting 5 14.4
2014-Jul-24 16:44 187 1 gusting 3 14.4
2014-Jul-24 16:39 187 2 gusting 3 14.4
2014-Jul-24 16:24 166 1 gusting 3 13.9
2014-Jul-24 16:19 166 1 gusting 5 13.9
2014-Jul-24 16:14 166 13.9
2014-Jul-24 16:09 162 5 gusting 6 13.9
2014-Jul-24 15:59 205 2 gusting 2 13.9
2014-Jul-24 15:54 329 13.9
2014-Jul-24 15:49 329 13.9
2014-Jul-24 15:44 327 3 gusting 3 13.9
2014-Jul-24 15:39 261 13.9
2014-Jul-24 15:34 261 13.9
2014-Jul-24 15:24 261 13.9
2014-Jul-24 15:09 194 2 gusting 2 13.9
2014-Jul-24 15:04 194 13.9
2014-Jul-24 14:50 194 13.9
2014-Jul-24 14:44 194 13.9
2014-Jul-24 14:39 194 13.9
2014-Jul-24 14:34 206 13.9
2014-Jul-24 14:19 194 13.9
2014-Jul-24 14:14 194 1 gusting 2 13.9
2014-Jul-24 13:45 176 0 gusting 6 13.9
2014-Jul-24 13:25 194 2 gusting 7 13.9
2014-Jul-24 13:19 183 13.9
2014-Jul-24 13:05 218 1 gusting 6 13.9
2014-Jul-24 12:55 259 3 gusting 6 13.9
2014-Jul-24 12:50 167 2 gusting 6 13.9
2014-Jul-24 12:40 128 13.9
2014-Jul-24 12:24 156 3 gusting 12 13.9
2014-Jul-24 12:15 180 3 gusting 9 13.9
2014-Jul-24 12:05 146 5 gusting 9 13.9
2014-Jul-24 11:55 179 6 gusting 11 13.9
2014-Jul-24 11:50 133 1 gusting 11 13.9
2014-Jul-24 11:45 174 9 gusting 10 13.9
2014-Jul-24 11:40 235 5 gusting 6 13.9
2014-Jul-24 11:35 175 1 gusting 6 13.9
2014-Jul-24 11:20 244 5 gusting 8 13.9
2014-Jul-24 11:00 200 0 gusting 10 13.9
2014-Jul-24 10:35 186 2 gusting 6 13.9
2014-Jul-24 10:20 210 6 gusting 12 13.3
2014-Jul-24 09:55 228 12 gusting 12 13.9
2014-Jul-24 09:45 180 3 gusting 13 13.9
2014-Jul-24 09:35 203 6 gusting 14 13.9
2014-Jul-24 09:15 200 5 gusting 14 13.9
2014-Jul-24 09:00 151 6 gusting 16 13.9
2014-Jul-24 08:40 163 6 gusting 12 13.9
2014-Jul-24 08:30 109 7 gusting 11 13.9
2014-Jul-24 08:20 112 0 gusting 8 13.9
2014-Jul-24 08:10 138 3 gusting 11 13.9
2014-Jul-24 08:05 165 2 gusting 11 13.9
2014-Jul-24 07:45 195 6 gusting 11 13.9
2014-Jul-24 07:25 187 2 gusting 17 13.9
2014-Jul-24 07:05 060 2 gusting 9 13.9
2014-Jul-24 06:55 225 6 gusting 12 13.9
2014-Jul-24 06:50 184 1 gusting 12 13.9
2014-Jul-24 06:25 194 8 gusting 11 13.9
2014-Jul-24 06:20 145 1 gusting 11 13.9
2014-Jul-24 06:10 203 3 gusting 14 13.9
2014-Jul-24 06:05 119 3 gusting 11 13.9
2014-Jul-24 06:00 265 2 gusting 11 13.9
2014-Jul-24 05:45 153 6 gusting 11 13.9
2014-Jul-24 04:44 092 1 gusting 11 13.9
2014-Jul-24 04:34 175 0 gusting 6 13.9
2014-Jul-24 04:29 196 1 gusting 6 14.4
2014-Jul-24 04:09 122 14.4
2014-Jul-24 03:59 269 14.4
2014-Jul-24 03:54 269 0 gusting 2 14.4
2014-Jul-24 03:39 302 0 gusting 5 15.0
2014-Jul-24 03:34 322 2 gusting 3 15.6
2014-Jul-24 03:19 263 16.1
2014-Jul-24 02:44 263 15.6
2014-Jul-24 02:19 262 16.1
2014-Jul-24 02:04 243 0 gusting 6 16.1
2014-Jul-24 01:44 305 0 gusting 3 16.1
2014-Jul-24 01:34 131 16.1
2014-Jul-24 01:24 134 1 gusting 2 16.1
2014-Jul-24 01:14 227 2 gusting 5 16.1
2014-Jul-24 01:04 137 0 gusting 6 15.6
2014-Jul-24 01:00 210 1 gusting 6 15.6
2014-Jul-24 00:55 159 0 gusting 6 15.6
2014-Jul-24 00:50 165 15.6
2014-Jul-24 00:39 149 15.6
2014-Jul-24 00:34 196 15.6
2014-Jul-24 00:24 150 15.6
2014-Jul-24 00:19 252 0 gusting 2 15.6
2014-Jul-24 00:09 147 15.6
2014-Jul-24 00:04 128 15.6
2014-Jul-23 23:59 071 1 gusting 5 15.6
2014-Jul-23 23:39 166 3 gusting 5 15.6
2014-Jul-23 23:35 048 15.6
2014-Jul-23 23:25 242 15.6
2014-Jul-23 23:19 136 2 gusting 8 15.6
2014-Jul-23 23:15 088 2 gusting 10 15.6
2014-Jul-23 23:00 219 1 gusting 6 15.6
2014-Jul-23 22:49 249 1 gusting 5 16.1
2014-Jul-23 22:45 355 16.1
2014-Jul-23 22:39 060 16.1
2014-Jul-23 22:34 254 1 gusting 6 16.1
2014-Jul-23 22:05 136 1 gusting 12 16.7
2014-Jul-23 21:55 194 1 gusting 7 16.7
2014-Jul-23 21:45 209 2 gusting 6 16.7
2014-Jul-23 21:40 273 16.7
2014-Jul-23 21:10 188 16.7
2014-Jul-23 20:35 130 3 gusting 6 16.7
2014-Jul-23 20:30 163 2 gusting 2 16.7
2014-Jul-23 20:25 145 16.7
2014-Jul-23 20:20 355 16.7
2014-Jul-23 20:15 347 16.7
2014-Jul-23 19:55 198 6 gusting 8 16.7
2014-Jul-23 19:50 121 5 gusting 8 16.7
2014-Jul-23 19:40 169 1 gusting 10 16.7
2014-Jul-23 19:30 051 2 gusting 12 16.7
2014-Jul-23 19:25 095 2 gusting 12 16.7
2014-Jul-23 19:20 185 6 gusting 10 16.7
2014-Jul-23 19:10 211 8 gusting 8 16.7
2014-Jul-23 18:55 169 3 gusting 11 16.7
2014-Jul-23 18:50 175 8 gusting 11 16.7
2014-Jul-23 18:45 150 3 gusting 10 16.7
2014-Jul-23 18:30 119 3 gusting 7 16.7
2014-Jul-23 18:20 105 2 gusting 8 16.7
2014-Jul-23 18:05 128 1 gusting 7 16.7
2014-Jul-23 17:55 103 5 gusting 6 16.7
2014-Jul-23 17:50 179 0 gusting 6 16.7
2014-Jul-23 17:40 140 5 gusting 10 16.7
2014-Jul-23 17:35 203 6 gusting 8 16.7
2014-Jul-23 17:30 207 5 gusting 8 16.7
2014-Jul-23 17:25 169 1 gusting 7 16.7
2014-Jul-23 17:20 171 7 gusting 8 16.7
2014-Jul-23 16:50 140 16.7
2014-Jul-23 16:30 118 7 gusting 9 16.1
2014-Jul-23 15:50 162 15.0
2014-Jul-23 15:30 171 15.0
2014-Jul-23 15:15 171 15.0
2014-Jul-23 14:55 214 2 gusting 5 14.4
2014-Jul-23 14:20 129 13.9
2014-Jul-23 14:15 105 13.9
2014-Jul-23 14:00 154 1 gusting 7 13.9
2014-Jul-23 13:40 233 13.9
2014-Jul-23 13:35 234 13.9
2014-Jul-23 13:25 123 2 gusting 2 13.9
2014-Jul-23 13:10 114 0 gusting 2 13.9
2014-Jul-23 13:00 112 13.3